Location: Silverdale
(47.6506°N, 122.6941°W)
Time: 05:43:39
(UTC+00:00)

Altair - Pass Details

Date: 03 October 2022
Orbit: 1501 x 1682 km, 47.2° (Epoch: 04 December)

Event Time Altitude Azimuth Distance (km) Brightness Sun altitude
Rises 16:29:05 0° 275° (W) 4,847 9.6 20.7°
Reaches altitude 10° 16:32:10 10° 275° (W) 3,881 9.2 21.2°
Maximum altitude 16:42:13 86° 188° (S) 1,680 8.2 22.6°
Drops below altitude 10° 16:52:26 10° 101° (ESE) 3,944 10.9 24.0°
Sets 16:55:35 0° 102° (ESE) 4,929 11.2 24.4°
